Location: ?ejeti?ky
(50.4060°N, 14.9016°E)
Time: 21:09:34
(UTC+00:00)

STARLINK-1364 - Pass Details

Date: 09 October 2020
Orbit: 548 x 551 km, 53.0° (Epoch: 23 October)

Event Time Altitude Azimuth Distance (km) Brightness Sun altitude
Exits shadow 04:20:59 12° 268° (W) 1,675 5.4 -9.2°
Maximum altitude 04:23:36 21° 223° (SW) 1,263 5.1 -8.8°
Drops below altitude 10° 04:26:44 10° 174° (S) 1,820 6.4 -8.3°
Sets 04:29:21 0° 158° (SSE) 2,710 7.5 -7.9°
